Thomasville, PA

7:02 PM EST on February 23, 2017 (GMT -0500)
York

Weather History for KTHV - July, 2013

Change the Weather History Date:

Tuesday, July 2, 2013

  Actual Average Record
Temperature  
Mean Temperature 78 °F -  
Max Temperature 82 °F 90 °F 93 °F (2002)
Min Temperature 73 °F 69 °F 48 °F (2001)
Cooling Degree Days 12    
Growing Degree Days 28 (Base 50)    
Moisture  
Dew Point 69 °F    
Average Humidity 79    
Maximum Humidity 88    
Minimum Humidity 62    
Precipitation  
Precipitation 0.02 in - - ()
Sea Level Pressure  
Sea Level Pressure 30.07 in    
Wind  
Wind Speed 2 mph (South)    
Max Wind Speed 8 mph    
Max Gust Speed 18 mph    
Visibility 10 miles    
Events Rain    
Averages and records for this station are not official NWS values.
T = Trace of Precipitation, MM = Missing Value Source: NWS Daily Summary

Daily Weather History Graph

Daily Weather History Graph

Search for Another Location

Airport or City:

Trip Planner

Search our weather history database for the weather conditions in past years. The results will help you decide how hot, cold, wet, or windy it might be!

Date:

Astronomy

Jul. 02, 2013 Rise Set
Actual Time 5:43 AM EDT 8:39 PM EDT
Civil Twilight 5:10 AM EDT 9:12 PM EDT
Nautical Twilight 4:29 AM EDT 9:53 PM EDT
Astronomical Twilight 3:41 AM EDT 10:41 PM EDT
Moon 1:44 AM EDT (7/2) 3:51 PM EDT (7/2)
Length of Visible Light 16h 01m
Length of Day
14h 56m
Waning Crescent, 26% of the Moon is Illuminated
Jul 2
Waning Crescent
Jul 8
New
Jul 15
First Quarter
Jul 22
Full
Jul 29
Last Quarter

Hourly Weather History & Observations

Time (EDT) Temp. Heat Index Dew Point Humidity Pressure Visibility Wind Dir Wind Speed Gust Speed Precip Events Conditions
12:53 AM 75.0 °F - 70.0 °F 84% 30.00 in 10.0 mi SSE 3.5 mph - N/A   Mostly Cloudy
1:53 AM 75.0 °F - 69.1 °F 82% 30.01 in 10.0 mi Calm Calm - N/A   Mostly Cloudy
2:16 AM 75.2 °F - 69.8 °F 83% 30.00 in 10.0 mi Calm Calm - N/A   Overcast
2:53 AM 73.9 °F - 70.0 °F 87% 30.00 in 10.0 mi Calm Calm - 0.02 in   Mostly Cloudy
3:37 AM 75.2 °F - 69.8 °F 83% 30.01 in 10.0 mi Calm Calm - N/A   Mostly Cloudy
3:49 AM 73.4 °F - 69.8 °F 88% 30.01 in 10.0 mi Calm Calm - N/A   Mostly Cloudy
3:53 AM 73.9 °F - 70.0 °F 87% 30.01 in 10.0 mi Calm Calm - N/A   Mostly Cloudy
4:53 AM 73.9 °F - 69.1 °F 85% 30.02 in 10.0 mi Calm Calm - 0.00 in   Scattered Clouds
5:05 AM 73.4 °F - 69.8 °F 88% 30.02 in 10.0 mi Calm Calm - N/A   Mostly Cloudy
5:14 AM 73.4 °F - 69.8 °F 88% 30.03 in 10.0 mi Calm Calm - N/A   Mostly Cloudy
5:29 AM 73.4 °F - 69.8 °F 88% 30.03 in 10.0 mi Calm Calm - N/A   Overcast
5:53 AM 73.9 °F - 69.1 °F 85% 30.04 in 10.0 mi Calm Calm - N/A   Overcast
6:53 AM 75.0 °F - 70.0 °F 84% 30.05 in 10.0 mi Calm Calm - N/A   Mostly Cloudy
7:25 AM 75.2 °F - 69.8 °F 83% 30.06 in 10.0 mi Variable 3.5 mph - N/A   Overcast
7:38 AM 75.2 °F - 69.8 °F 83% 30.07 in 10.0 mi Calm Calm - N/A   Overcast
7:53 AM 75.9 °F - 69.1 °F 79% 30.06 in 10.0 mi Variable 3.5 mph - 0.00 in   Overcast
8:51 AM 75.2 °F - 69.8 °F 83% 30.07 in 10.0 mi Variable 3.5 mph - 0.00 in Rain Light Rain
8:53 AM 75.9 °F - 70.0 °F 82% 30.07 in 10.0 mi Calm Calm - 0.00 in Rain Light Rain
9:22 AM 75.2 °F - 69.8 °F 83% 30.08 in 10.0 mi SSW 6.9 mph - 0.00 in   Mostly Cloudy
10:36 AM 77.0 °F - 69.8 °F 78% 30.09 in 10.0 mi South 8.1 mph - N/A   Scattered Clouds
10:53 AM 77.0 °F - 69.1 °F 76% 30.09 in 10.0 mi Variable 5.8 mph - N/A   Mostly Cloudy
11:53 AM 79.0 °F - 69.1 °F 72% 30.10 in 10.0 mi Variable 5.8 mph - N/A   Overcast
12:21 PM 80.6 °F 83.9 °F 69.8 °F 70% 30.10 in 10.0 mi Variable 4.6 mph - N/A   Overcast
12:53 PM 81.0 °F 84.1 °F 69.1 °F 67% 30.09 in 10.0 mi Variable 6.9 mph - N/A   Scattered Clouds
1:53 PM 82.9 °F 86.5 °F 69.1 °F 63% 30.08 in 10.0 mi South 8.1 mph 18.4 mph N/A   Clear
2:53 PM 82.0 °F 84.9 °F 68.0 °F 62% 30.09 in 10.0 mi Variable 4.6 mph - N/A   Partly Cloudy
3:53 PM 82.9 °F 86.5 °F 69.1 °F 63% 30.08 in 10.0 mi South 5.8 mph - N/A   Scattered Clouds
4:53 PM 80.1 °F 82.7 °F 68.0 °F 67% 30.09 in 10.0 mi South 6.9 mph - 0.00 in   Mostly Cloudy
5:53 PM 79.0 °F - 70.0 °F 74% 30.11 in 10.0 mi Variable 5.8 mph - 0.00 in Rain Light Rain
6:53 PM 78.1 °F - 68.0 °F 71% 30.13 in 10.0 mi South 5.8 mph - 0.00 in   Scattered Clouds
7:53 PM 75.9 °F - 66.9 °F 74% 30.13 in 10.0 mi Variable 5.8 mph - 0.00 in   Partly Cloudy
8:53 PM 75.0 °F - 68.0 °F 79% 30.14 in 10.0 mi Calm Calm - N/A   Overcast
9:53 PM 75.0 °F - 68.0 °F 79% 30.15 in 10.0 mi Variable 6.9 mph - N/A   Overcast
10:38 PM 73.4 °F - 68.0 °F 83% 30.16 in 10.0 mi SSW 6.9 mph - N/A   Scattered Clouds
10:53 PM 73.9 °F - 68.0 °F 82% 30.16 in 10.0 mi Variable 5.8 mph - N/A   Partly Cloudy
11:53 PM 73.9 °F - 68.0 °F 82% 30.17 in 10.0 mi South 4.6 mph - N/A   Partly Cloudy